Vertical_Velocity
-1 1 -1 -1 1 2 2 0 4 4 -2 6 0 -4 0 -16 16 1 -1 -16 -26 -4 32 4 10 40 6 -6 21 15 0 -1 -0 1 1 -0 2 4 4 4 0 1 0 -0
1 -3 -2 -0 2 -0 -1 1 4 1 -5 5 8 -4 9 -2 -2 -6 9 1 -15 -11 4 -8 1 -6 -12 15 -11 34 14 5 5 2 -0 0 1 3 4 4 1 0 -1 -0
1 -0 -2 -0 1 4 -0 -1 0 -0 1 -1 8 -15 -2 9 8 9 2 8 25 46 9 -5 -22 -31 10 -15 27 15 7 -13 3 2 1 0 -2 -0 -1 0 2 4 4 3
-1 1 -2 1 -3 -3 4 0 -1 2 6 -1 4 7 -13 6 15 -9 -14 -8 -5 61 9 12 10 18 14 -5 3 -1 -20 -1 -2 8 3 2 1 -1 2 4 4 3 1 0
-2 0 -2 -6 -3 -3 0 -0 -3 0 0 6 -7 -3 -2 9 -9 0 11 -11 -15 14 23 7 8 -15 -4 -10 4 1 12 -16 8 -5 4 -1 2 2 -1 -1 -1 0 -0 1
0 1 -4 2 1 1 2 1 -2 -0 -1 -7 1 -1 -0 -16 -5 8 5 11 0 -0 2 0 -1 12 12 4 6 -1 -1 -6 6 -2 3 5 2 5 4 2 1 1 1 2
-3 -1 0 -5 -2 -1 3 2 2 4 -2 4 -3 -2 2 9 9 -2 3 5 6 -3 -4 3 1 -2 -11 20 1 17 6 -4 -11 -6 8 7 2 5 5 3 2 2 2 1
-4 -4 -4 -1 1 3 -2 -4 2 0 1 3 -3 2 -0 0 -1 0 -2 -4 -3 -1 1 4 3 -1 5 0 -5 -7 15 13 8 2 -1 -2 2 -10 7 4 4 4 4 2
-2 0 -1 0 -1 -6 -4 -2 -1 -0 -4 1 -3 -4 1 0 3 -1 -4 -3 -4 -8 -2 -1 -0 -2 1 -0 -0 7 -15 -0 11 7 14 13 2 3 -8 -8 3 4 1 3
-1 -3 -2 -1 1 -0 -4 -2 1 -2 2 1 1 -2 2 1 -2 -3 0 0 -2 2 3 -1 1 1 -3 -12 -7 -1 -3 0 1 9 7 -3 14 21 2 -5 -4 1 9 -0
1 -1 -3 -5 0 1 1 -1 -2 -2 -2 2 1 4 -3 -2 0 -1 -2 3 4 -0 -0 1 2 1 -4 1 -2 -1 -1 0 -7 3 4 2 -5 -11 7 11 19 13 -1 5
-0 0 -2 -2 -2 -5 -1 -0 -3 -0 1 -1 1 7 -2 -1 -2 -2 -0 -3 -3 0 0 -4 -3 -1 2 1 1 -7 -6 -7 -4 -6 -2 -2 1 1 1 -2 -5 -5 -4 -6
-1 1 -3 2 2 1 1 -2 0 -0 -1 -5 5 4 -3 -3 -3 -3 -2 -1 -1 -3 -4 -3 -1 -1 -3 -1 2 1 3 3 0 -3 -3 -6 -1 2 2 -3 -6 -3 -1 3
1 1 -4 -3 3 2 1 3 1 -1 2 1 -10 -2 -2 -1 1 0 -1 -1 0 1 -0 -1 0 -1 1 3 -2 -4 -5 -2 1 -2 1 -3 -1 1 2 2 5 4 1 1
2 -1 1 -4 -4 1 1 1 3 -1 1 -3 5 2 -2 -0 0 5 1 2 -1 -4 -5 -3 -3 -2 -3 -2 2 5 5 6 2 1 1 4 3 4 5 3 1 2 -0 2
-1 -3 -0 -5 -1 -1 -2 2 2 2 2 -5 2 -0 1 -1 -2 -2 -1 1 0 0 2 1 -2 -3 -1 -0 -1 -2 -2 1 3 4 -1 -0 -0 -0 0 -1 -2 -2 6 4
3 1 1 -4 -0 -1 -5 -0 1 -1 -1 2 2 -1 4 4 0 -1 -0 0 -0 -0 -1 -3 -2 0 1 -3 -6 -7 -5 -6 -7 -8 -5 -2 -3 -3 1 2 1 -2 -6 -4
1 6 2 -5 1 2 -2 -1 1 -0 -0 0 2 -0 1 1 0 0 -0 -3 -4 -4 -4 -5 -6 -6 -9 -8 -3 -2 -11 -13 -8 -5 -3 -2 -6 -6 -4 -4 -3 1 3 2
2 5 0 2 -1 -0 -8 -4 0 0 -6 -2 -2 -2 -0 -2 -4 -1 -0 1 -1 -1 -1 -2 -5 -7 -5 -4 -5 -6 -6 -1 -2 -9 -9 -8 -1 1 -1 -1 -0 1 -10 -5
1 2 -0 1 1 0 -2 -1 -0 0 -6 -2 -0 -1 -2 1 4 -8 -4 -3 -2 -2 -3 0 -0 -1 -2 -4 -3 -3 -4 -4 -4 -2 -2 -3 -7 -10 -8 -5 -4 -0 -3 -5
2 1 -2 3 -0 -0 -0 1 0 1 -3 0 -1 -1 -1 -3 -4 -4 -3 -3 -5 -5 -2 1 -2 -4 -2 -1 -2 -2 -2 -2 -2 -2 -4 -4 -2 -4 -2 -6 -2 1 -2 -2
2 2 -3 4 0 -4 -1 0 2 1 1 -0 -0 -2 -3 -2 -2 -3 -3 -3 0 0 -2 -0 -2 1 -0 -2 -4 -3 -3 -3 -1 1 -0 -1 -4 -4 -7 -10 -0 -2 -2 -0
-4 -6 -2 -2 1 3 2 1 2 1 2 1 1 1 1 1 0 -0 -1 -1 -2 -2 -1 1 -1 -0 1 -2 -4 -4 -0 -3 -1 -2 -5 -4 -3 -4 -8 -10 -3 -6 -0 -2
-3 1 0 9 -5 0 1 1 2 1 0 -0 -1 -0 1 2 -1 0 -1 -1 1 -0 -1 -0 0 2 3 2 1 -6 -5 -4 -5 -2 -2 -0 -3 -9 -5 -5 -7 -8 -2 -1
0 3 -4 -3 -2 0 2 -0 -0 -1 -2 -1 -1 -1 -1 -0 1 -1 1 0 -1 -2 -0 -0 -1 -2 0 3 3 -2 -2 -4 -2 -2 -5 -4 -6 -4 -6 -1 -10 -4 4 -3
0 -2 -1 -3 1 0 -1 -1 -1 -1 -1 -1 -2 -2 -5 -4 -2 -3 1 -1 -2 -1 -0 1 1 -2 -2 0 -0 -1 0 -0 -3 -0 0 -1 -5 -2 -3 -11 -5 13 0 1
Height
3127 3126 3121 3118 3114 3110 3106 3102 3099 3096 3093 3091 3087 3084 3079 3069 3066 3066 3063 3061 3060 3056 3062 3066 3069 3067 3072 3070 3083 3088 3092 3097 3101 3104 3108 3112 3116 3120 3123 3126 3129 3132 3135 3138
3128 3125 3123 3118 3113 3109 3105 3102 3100 3098 3096 3095 3091 3087 3082 3077 3071 3067 3062 3059 3055 3058 3063 3064 3062 3065 3067 3076 3070 3078 3082 3091 3096 3101 3104 3107 3111 3115 3119 3123 3126 3129 3132 3134
3128 3126 3123 3118 3114 3109 3104 3102 3101 3100 3096 3093 3093 3090 3086 3084 3078 3070 3061 3057 3055 3058 3066 3068 3070 3077 3079 3077 3073 3075 3081 3087 3092 3097 3101 3104 3106 3110 3113 3118 3122 3125 3126 3128
3128 3125 3122 3118 3114 3109 3106 3103 3102 3100 3098 3095 3092 3095 3088 3087 3082 3073 3070 3060 3059 3057 3065 3069 3073 3075 3069 3069 3072 3073 3082 3085 3088 3092 3096 3100 3104 3107 3111 3113 3116 3117 3120 3123
3129 3124 3121 3117 3114 3109 3106 3103 3103 3101 3099 3098 3096 3097 3098 3088 3081 3082 3078 3073 3067 3062 3068 3072 3074 3077 3077 3082 3081 3081 3080 3081 3085 3086 3091 3095 3100 3103 3104 3106 3109 3110 3113 3116
3127 3124 3121 3118 3114 3110 3104 3104 3103 3102 3101 3102 3101 3100 3100 3095 3094 3090 3086 3083 3079 3076 3076 3077 3078 3081 3082 3082 3082 3082 3080 3084 3084 3085 3085 3089 3093 3097 3099 3100 3102 3104 3107 3109
3126 3123 3120 3117 3114 3111 3107 3104 3103 3103 3102 3103 3103 3103 3102 3099 3096 3093 3088 3086 3084 3082 3082 3082 3081 3080 3081 3078 3079 3079 3080 3083 3084 3083 3084 3084 3085 3089 3093 3096 3098 3099 3100 3103
3125 3124 3122 3118 3114 3112 3109 3107 3106 3104 3104 3105 3106 3106 3105 3102 3099 3096 3094 3091 3090 3088 3086 3083 3082 3082 3081 3081 3080 3082 3080 3083 3083 3082 3081 3080 3080 3081 3086 3088 3091 3093 3095 3097
3125 3124 3121 3118 3115 3114 3111 3109 3108 3107 3107 3106 3108 3108 3108 3105 3103 3100 3097 3095 3092 3089 3087 3085 3084 3084 3082 3081 3082 3080 3081 3080 3080 3079 3079 3078 3078 3077 3077 3083 3084 3087 3088 3091
3123 3122 3121 3119 3117 3115 3113 3112 3111 3108 3105 3103 3104 3104 3103 3102 3101 3099 3097 3093 3090 3087 3085 3085 3084 3082 3081 3081 3081 3081 3081 3081 3079 3076 3075 3075 3075 3074 3072 3074 3077 3079 3081 3082
3121 3120 3120 3117 3116 3115 3114 3112 3111 3109 3107 3102 3099 3099 3097 3098 3098 3097 3096 3094 3091 3088 3086 3083 3081 3080 3079 3079 3079 3079 3078 3076 3077 3076 3073 3072 3072 3071 3070 3071 3068 3069 3071 3071
3120 3118 3116 3115 3112 3113 3112 3111 3110 3111 3110 3106 3103 3099 3094 3094 3094 3094 3092 3091 3090 3089 3086 3083 3082 3080 3079 3077 3076 3075 3075 3074 3072 3071 3070 3069 3069 3068 3067 3066 3065 3064 3064 3064
3118 3116 3115 3112 3113 3110 3109 3109 3108 3107 3106 3105 3104 3096 3092 3092 3091 3091 3091 3091 3090 3088 3086 3084 3082 3080 3078 3076 3074 3073 3072 3070 3069 3067 3065 3064 3063 3061 3059 3059 3059 3058 3057 3057
3115 3112 3112 3111 3109 3108 3105 3104 3103 3105 3104 3099 3096 3092 3091 3090 3089 3088 3088 3087 3085 3084 3084 3083 3081 3079 3077 3075 3073 3070 3068 3067 3066 3064 3063 3061 3059 3057 3055 3053 3051 3050 3047 3047
3111 3107 3105 3104 3103 3101 3097 3096 3096 3095 3096 3095 3091 3090 3087 3087 3086 3085 3084 3082 3080 3079 3077 3076 3075 3074 3072 3071 3068 3065 3064 3063 3061 3059 3057 3055 3053 3051 3048 3045 3043 3043 3042 3041
3106 3104 3100 3095 3095 3094 3091 3090 3088 3088 3088 3087 3088 3084 3080 3080 3080 3079 3078 3076 3075 3074 3072 3070 3068 3066 3065 3064 3062 3061 3058 3054 3052 3050 3048 3045 3043 3041 3038 3036 3035 3034 3032 3030
3101 3100 3098 3093 3091 3089 3085 3081 3081 3081 3081 3081 3081 3081 3079 3076 3074 3073 3071 3070 3069 3067 3066 3064 3061 3058 3054 3053 3053 3052 3049 3047 3044 3040 3037 3033 3029 3027 3026 3024 3024 3023 3021 3021
3094 3095 3095 3090 3088 3085 3078 3078 3077 3076 3076 3076 3076 3075 3074 3072 3069 3068 3066 3065 3063 3060 3057 3054 3051 3049 3045 3042 3038 3034 3031 3029 3026 3023 3020 3017 3013 3010 3008 3007 3006 3006 3006 3006
3088 3089 3090 3087 3084 3078 3074 3072 3073 3071 3071 3070 3069 3068 3069 3068 3066 3063 3059 3055 3052 3049 3046 3043 3038 3035 3031 3028 3025 3021 3017 3012 3008 3005 3002 2998 2994 2991 2989 2987 2987 2986 2986 2986
3084 3084 3086 3083 3082 3073 3068 3068 3067 3067 3064 3063 3063 3063 3063 3063 3061 3055 3053 3049 3046 3040 3037 3034 3029 3023 3019 3017 3014 3010 3007 3003 2998 2993 2989 2986 2982 2977 2971 2968 2967 2967 2965 2964
3080 3079 3079 3078 3077 3069 3064 3064 3064 3066 3065 3059 3059 3059 3057 3056 3054 3051 3047 3042 3037 3034 3029 3024 3020 3016 3012 3008 3006 3002 2999 2995 2990 2986 2981 2976 2970 2964 2959 2954 2950 2946 2945 2944
3077 3077 3075 3074 3073 3068 3062 3061 3064 3060 3056 3055 3052 3050 3048 3045 3042 3039 3036 3035 3032 3027 3023 3018 3015 3011 3005 3001 2997 2994 2990 2986 2981 2976 2971 2966 2959 2951 2944 2937 2932 2928 2925 2923
3072 3072 3071 3072 3066 3061 3059 3057 3056 3054 3051 3048 3045 3041 3039 3036 3033 3030 3027 3023 3020 3018 3015 3012 3008 3004 2999 2994 2988 2985 2980 2976 2971 2965 2960 2953 2948 2942 2934 2924 2916 2911 2908 2906
3063 3064 3063 3064 3059 3057 3055 3053 3050 3047 3044 3041 3038 3036 3032 3029 3025 3023 3019 3017 3014 3010 3007 3004 3000 2996 2992 2987 2983 2977 2972 2967 2961 2956 2949 2942 2935 2929 2924 2916 2906 2898 2894 2891
3058 3056 3055 3053 3052 3050 3048 3045 3042 3040 3037 3034 3031 3029 3025 3023 3020 3017 3013 3010 3006 3003 3000 2996 2992 2988 2984 2979 2974 2969 2964 2959 2953 2946 2939 2933 2926 2919 2912 2906 2897 2889 2885 2880
3047 3047 3047 3044 3043 3042 3040 3037 3035 3032 3029 3027 3024 3021 3018 3016 3013 3010 3008 3004 3000 2996 2992 2989 2984 2979 2975 2971 2966 2961 2954 2949 2944 2938 2932 2924 2917 2910 2903 2895 2887 2884 2874 2870